Location: Audrecelles
(50.8240°N, 1.5923°E)
Time: 23:07:12
(UTC+00:00)

Cosmos 44 - Visible Passes

Search period start: 22 April 2026 00:00
Search period end: 02 May 2026 00:00
Orbit: 568 x 782 km, 65.1° (Epoch: 22 April)

Date Brightness Start Highest point End Pass type
(mag) Time Alt. Az. Time Alt. Az. Time Alt. Az.
22 Apr 6.2 01:18:54 10° NW 01:22:42 19° N 01:26:30 10° NE visible
22 Apr 5.2 03:00:16 10° NNW 03:05:18 37° NE 03:10:16 10° ESE visible
22 Apr 3.5 20:45:59 10° SW 20:51:06 83° NW 20:56:30 10° NE visible
22 Apr 5.6 22:28:34 10° W 22:33:00 27° NNW 22:37:35 10° NNE visible
23 Apr 6.3 00:12:17 10° NW 00:15:52 18° N 00:19:29 10° NE visible
23 Apr 5.9 01:54:24 10° NNW 01:58:48 24° NNE 02:03:11 10° ENE visible
23 Apr 4.0 03:35:28 10° NW 03:40:53 67° NE 03:46:11 10° SE visible
23 Apr 3.7 19:40:32 10° SSW 19:45:22 46° ESE 19:50:26 10° NE visible
23 Apr 4.7 21:21:39 10° WSW 21:26:34 43° NW 21:31:44 10° NE visible
23 Apr 6.1 23:05:10 10° WNW 23:09:02 20° NNW 23:13:00 10° NNE visible
24 Apr 6.2 00:48:16 10° NW 00:52:05 19° N 00:55:54 10° NE visible
24 Apr 5.1 02:29:38 10° NNW 02:34:41 37° NE 02:39:39 10° ESE visible
24 Apr 3.6 20:15:21 10° SW 20:20:28 83° NW 20:25:53 10° NE visible
24 Apr 5.7 21:57:56 10° W 22:02:23 27° NNW 22:06:57 10° NNE visible
24 Apr 6.3 23:41:39 10° NW 23:45:15 18° N 23:48:52 10° NE visible
25 Apr 5.9 01:23:46 10° NNW 01:28:11 25° NNE 01:32:34 10° ENE visible
25 Apr 3.9 03:04:50 10° NW 03:10:16 68° NE 03:15:33 10° SE visible
25 Apr 4.8 20:51:01 10° WSW 20:55:57 43° NW 21:01:06 10° NE visible
25 Apr 6.2 22:34:32 10° WNW 22:38:25 20° NNW 22:42:22 10° NNE visible
26 Apr 6.2 00:17:39 10° NW 00:21:27 19° N 00:25:17 10° NE visible
26 Apr 5.1 01:59:01 10° NNW 02:04:03 37° NE 02:09:01 10° ESE visible
26 Apr 3.6 03:40:10 10° NW 03:45:30 60° SW 03:50:41 10° SSE visible
26 Apr 3.6 19:44:42 10° SW 19:49:50 82° NW 19:55:15 10° NE visible
26 Apr 5.7 21:27:18 10° W 21:31:45 27° NNW 21:36:19 10° NNE visible
26 Apr 6.3 23:11:02 10° NW 23:14:37 18° N 23:18:14 10° NE visible
27 Apr 5.8 00:53:08 10° NNW 00:57:33 25° NNE 01:01:57 10° ENE visible
27 Apr 3.9 02:34:12 10° NW 02:39:38 68° NE 02:44:55 10° SE visible
27 Apr 4.9 20:20:23 10° WSW 20:25:19 43° NW 20:30:28 10° NE visible
27 Apr 6.2 22:03:55 10° WNW 22:07:48 20° NNW 22:11:45 10° NNE visible
27 Apr 6.2 23:47:00 10° NW 23:50:50 19° N 23:54:39 10° NE visible
28 Apr 5.0 01:28:23 10° NNW 01:33:26 38° NE 01:38:23 10° ESE visible
28 Apr 3.5 03:09:32 10° NW 03:14:52 59° WSW 03:20:02 10° SSE visible
28 Apr 5.8 20:56:41 10° W 21:01:07 27° NNW 21:05:42 10° NNE visible
28 Apr 6.3 22:40:24 10° NW 22:43:59 18° N 22:47:37 10° NE visible
29 Apr 5.8 00:22:31 10° NNW 00:26:55 25° NNE 00:31:20 10° ENE visible
29 Apr 3.8 02:03:34 10° NW 02:09:00 69° NE 02:14:16 10° SE visible
29 Apr 4.4 03:45:18 10° WNW 03:49:44 27° WSW 03:54:04 10° S visible
29 Apr 4.9 19:49:45 10° WSW 19:54:41 43° NW 19:59:50 10° NE visible
29 Apr 6.2 21:33:17 10° WNW 21:37:11 20° NNW 21:41:07 10° NNE visible
29 Apr 6.2 23:16:23 10° NW 23:20:13 19° N 23:24:02 10° ENE visible
30 Apr 5.0 00:57:44 10° NNW 01:02:48 38° NE 01:07:46 10° ESE visible
30 Apr 3.5 02:38:54 10° NW 02:44:14 59° WSW 02:49:23 10° SSE visible
30 Apr 5.8 20:26:03 10° W 20:30:30 27° NNW 20:35:03 10° NNE visible
30 Apr 6.3 22:09:46 10° NW 22:13:22 18° N 22:16:59 10° NE visible
30 Apr 5.7 23:51:52 10° NNW 23:56:18 25° NNE 00:00:42 10° ENE visible
1 May 3.8 01:32:56 10° NW 01:38:22 69° NE 01:43:38 10° SE visible
1 May 4.4 03:14:40 10° WNW 03:19:05 26° WSW 03:23:24 10° S visible
1 May 6.2 21:02:40 10° WNW 21:06:32 20° NNW 21:10:29 10° NNE visible
1 May 6.1 22:45:45 10° NW 22:49:35 19° N 22:53:25 10° ENE visible
